* Astronomy

Members Login
Username 
 
Password 
    Remember Me  
Post Info TOPIC: Asteroid 2012 JN4


L

Posts: 131433
Date:
Asteroid 2012 JN4
Permalink  
 


Orbital elements:
2012 JN4                                                 Earth MOID = 0.0691 AU
Epoch 2012 Mar. 14.0 TT = JDT 2456000.5                 MPC
M 355.71042              (2000.0)            P               Q
n   0.75423324     Peri.  127.12326     -0.95813997     -0.08414178
a   1.1952689      Node    49.80753     -0.09583303     -0.80644325
e   0.1390719      Incl.   20.99247     +0.26978479     -0.58529432
P   1.31           H   23.5           G   0.15           U   7

MPEC 2012 - J43



__________________
Page 1 of 1  sorted by
 
Quick Reply

Please log in to post quick replies.



Create your own FREE Forum
Report Abuse
Powered by ActiveBoard